When you browse on this site, cookies collect data to enhance your experience and personalize the content and advertising you see.
Visit our Privacy Policy to learn more. By continuing to use the site, you agree to this use of cookies and data.
  • In United Kingdom
  • List of Countries
  • For 7 days
  • Water Temperature
  • Weather Map
  • Weather Widgets
  • user-avatar
    Login

    Hourly Weather Maidstone

    Today, 28 May, Thursday

    Time Temperature Precipitation Wind Pressure Humidity
    00:00 +11°C° 0 mm 3 mps 774 mmHg 90%
    01:00 +11°C° 0 mm 3 mps 774 mmHg 91%
    02:00 +10°C° 0 mm 3 mps 774 mmHg 92%
    03:00 +10°C° 0 mm 3 mps 774 mmHg 94%
    04:00 +11°C° 0 mm 4 mps 774 mmHg 89%
    05:00 +11°C° 0 mm 4 mps 774 mmHg 85%
    06:00 +12°C° 0 mm 4 mps 774 mmHg 80%
    07:00 +13°C° 0 mm 4 mps 774 mmHg 73%
    08:00 +14°C° 0 mm 5 mps 774 mmHg 66%
    09:00 +16°C° 0 mm 5 mps 774 mmHg 59%
    10:00 +16°C° 0 mm 5 mps 774 mmHg 57%
    11:00 +17°C° 0 mm 5 mps 773 mmHg 55%
    12:00 +17°C° 0 mm 5 mps 773 mmHg 53%
    13:00 +17°C° 0 mm 5 mps 773 mmHg 53%
    14:00 +17°C° 0 mm 5 mps 772 mmHg 53%
    15:00 +17°C° 0 mm 5 mps 772 mmHg 53%
    16:00 +16°C° 0 mm 5 mps 772 mmHg 57%
    17:00 +15°C° 0 mm 5 mps 772 mmHg 61%
    18:00 +14°C° 0 mm 5 mps 771 mmHg 64%
    19:00 +13°C° 0 mm 5 mps 772 mmHg 70%
    20:00 +12°C° 0 mm 4 mps 772 mmHg 76%
    21:00 +10°C° 0 mm 4 mps 772 mmHg 82%
    22:00 +10°C° 0 mm 4 mps 771 mmHg 84%
    23:00 +10°C° 0 mm 4 mps 771 mmHg 85%

    Tomorrow, 29 May, Friday

    Time Temperature Precipitation Wind Pressure Humidity
    00:00 +9°C° 0 mm 3 mps 771 mmHg 86%
    01:00 +9°C° 0 mm 3 mps 771 mmHg 87%
    02:00 +9°C° 0 mm 3 mps 771 mmHg 89%
    03:00 +9°C° 0 mm 3 mps 770 mmHg 90%
    04:00 +10°C° 0 mm 3 mps 770 mmHg 85%
    05:00 +11°C° 0 mm 3 mps 770 mmHg 80%
    06:00 +12°C° 0 mm 3 mps 770 mmHg 76%
    07:00 +13°C° 0 mm 4 mps 770 mmHg 69%
    08:00 +14°C° 0 mm 4 mps 770 mmHg 62%
    09:00 +16°C° 0 mm 5 mps 770 mmHg 56%
    10:00 +16°C° 0 mm 5 mps 770 mmHg 53%
    11:00 +17°C° 0 mm 5 mps 769 mmHg 50%
    12:00 +17°C° 0 mm 5 mps 769 mmHg 47%
    13:00 +17°C° 0 mm 5 mps 769 mmHg 47%
    14:00 +17°C° 0 mm 5 mps 768 mmHg 47%
    15:00 +17°C° 0 mm 5 mps 768 mmHg 48%
    16:00 +16°C° 0 mm 5 mps 767 mmHg 52%
    17:00 +15°C° 0 mm 5 mps 767 mmHg 57%
    18:00 +14°C° 0 mm 5 mps 767 mmHg 61%
    19:00 +12°C° 0 mm 4 mps 767 mmHg 70%
    20:00 +11°C° 0 mm 4 mps 767 mmHg 79%
    21:00 +8°C° 0 mm 4 mps 767 mmHg 87%
    22:00 +8°C° 0 mm 4 mps 767 mmHg 88%
    23:00 +9°C° 0 mm 3 mps 767 mmHg 89%

    Day after tomorrow, 30 May, Saturday

    Time Temperature Precipitation Wind Pressure Humidity
    00:00 +9°C° 0 mm 3 mps 767 mmHg 90%
    01:00 +9°C° 0 mm 3 mps 767 mmHg 91%
    02:00 +9°C° 0 mm 3 mps 767 mmHg 92%
    03:00 +9°C° 0 mm 3 mps 766 mmHg 93%
    04:00 +11°C° 0 mm 3 mps 766 mmHg 90%
    05:00 +12°C° 0 mm 3 mps 766 mmHg 88%
    06:00 +13°C° 0 mm 3 mps 766 mmHg 86%
    07:00 +14°C° 0 mm 4 mps 766 mmHg 79%
    08:00 +17°C° 0 mm 4 mps 766 mmHg 71%
    09:00 +17°C° 0 mm 5 mps 766 mmHg 64%
    10:00 +19°C° 0 mm 5 mps 766 mmHg 61%
    11:00 +19°C° 0 mm 5 mps 766 mmHg 59%
    12:00 +20°C° 0 mm 5 mps 766 mmHg 56%
    13:00 +20°C° 0 mm 5 mps 766 mmHg 56%
    14:00 +20°C° 0 mm 5 mps 765 mmHg 56%
    15:00 +20°C° 0 mm 5 mps 765 mmHg 56%
    16:00 +19°C° 0 mm 5 mps 765 mmHg 60%
    17:00 +17°C° 0 mm 5 mps 765 mmHg 63%
    18:00 +16°C° 0 mm 5 mps 765 mmHg 67%
    19:00 +15°C° 0 mm 5 mps 765 mmHg 74%
    20:00 +13°C° 0 mm 4 mps 765 mmHg 80%
    21:00 +11°C° 0 mm 4 mps 765 mmHg 87%
    22:00 +11°C° 0 mm 3 mps 765 mmHg 88%
    23:00 +11°C° 0 mm 3 mps 765 mmHg 90%

    31 May, Sunday

    Time Temperature Precipitation Wind Pressure Humidity
    00:00 +11°C° 0 mm 3 mps 765 mmHg 91%
    01:00 +11°C° 0 mm 3 mps 765 mmHg 91%
    02:00 +11°C° 0 mm 3 mps 765 mmHg 92%
    03:00 +11°C° 0 mm 3 mps 765 mmHg 92%
    04:00 +12°C° 0 mm 3 mps 765 mmHg 89%
    05:00 +13°C° 0 mm 3 mps 765 mmHg 85%
    06:00 +14°C° 0 mm 3 mps 765 mmHg 82%
    07:00 +15°C° 0 mm 4 mps 765 mmHg 76%
    08:00 +16°C° 0 mm 5 mps 765 mmHg 70%
    09:00 +19°C° 0 mm 5 mps 766 mmHg 64%
    10:00 +19°C° 0 mm 5 mps 765 mmHg 62%
    11:00 +19°C° 0 mm 5 mps 765 mmHg 61%
    12:00 +20°C° 0 mm 5 mps 765 mmHg 59%
    13:00 +19°C° 0 mm 6 mps 765 mmHg 58%
    14:00 +19°C° 0 mm 6 mps 765 mmHg 58%
    15:00 +19°C° 0 mm 6 mps 765 mmHg 57%
    16:00 +17°C° 0 mm 6 mps 765 mmHg 59%
    17:00 +16°C° 0 mm 5 mps 765 mmHg 62%
    18:00 +15°C° 0 mm 5 mps 765 mmHg 64%
    19:00 +14°C° 0 mm 5 mps 765 mmHg 72%
    20:00 +12°C° 0 mm 4 mps 765 mmHg 81%
    21:00 +11°C° 0 mm 4 mps 765 mmHg 89%
    22:00 +11°C° 0 mm 4 mps 765 mmHg 90%
    23:00 +11°C° 0 mm 4 mps 765 mmHg 91%

    1 June, Monday

    Time Temperature Precipitation Wind Pressure Humidity
    00:00 +11°C° 0 mm 4 mps 765 mmHg 92%
    01:00 +11°C° 0 mm 3 mps 765 mmHg 93%
    02:00 +11°C° 0 mm 3 mps 764 mmHg 93%
    03:00 +11°C° 0 mm 3 mps 764 mmHg 93%
    04:00 +12°C° 0 mm 3 mps 764 mmHg 91%
    05:00 +13°C° 0 mm 4 mps 764 mmHg 89%
    06:00 +14°C° 0 mm 4 mps 764 mmHg 86%
    07:00 +15°C° 0 mm 4 mps 764 mmHg 80%
    08:00 +17°C° 0 mm 5 mps 764 mmHg 74%
    09:00 +19°C° 0 mm 5 mps 764 mmHg 68%
    10:00 +20°C° 0 mm 5 mps 764 mmHg 65%
    11:00 +20°C° 0 mm 5 mps 764 mmHg 63%
    12:00 +21°C° 0 mm 5 mps 763 mmHg 61%
    13:00 +21°C° 0 mm 5 mps 763 mmHg 61%
    14:00 +21°C° 0 mm 5 mps 763 mmHg 60%
    15:00 +21°C° 0 mm 5 mps 763 mmHg 60%
    16:00 +20°C° 0 mm 5 mps 762 mmHg 63%
    17:00 +19°C° 0 mm 4 mps 762 mmHg 66%
    18:00 +18°C° 0 mm 4 mps 762 mmHg 69%
    19:00 +15°C° 0 mm 4 mps 762 mmHg 74%
    20:00 +14°C° 0 mm 4 mps 762 mmHg 80%
    21:00 +12°C° 0 mm 3 mps 762 mmHg 85%
    22:00 +12°C° 0 mm 3 mps 762 mmHg 86%
    23:00 +11°C° 0 mm 3 mps 762 mmHg 87%

    2 June, Tuesday

    Time Temperature Precipitation Wind Pressure Humidity
    00:00 +11°C° 0 mm 3 mps 762 mmHg 88%
    01:00 +12°C° 0 mm 4 mps 761 mmHg 85%
    02:00 +12°C° 0 mm 4 mps 761 mmHg 83%
    03:00 +12°C° 0 mm 4 mps 761 mmHg 80%
    04:00 +12°C° 0 mm 4 mps 761 mmHg 80%
    05:00 +13°C° 0 mm 4 mps 761 mmHg 80%
    06:00 +13°C° 0 mm 4 mps 761 mmHg 80%
    07:00 +15°C° 0 mm 4 mps 761 mmHg 77%
    08:00 +16°C° 0 mm 5 mps 761 mmHg 74%
    09:00 +19°C° 0 mm 5 mps 760 mmHg 71%
    10:00 +20°C° 0.4 mm 5 mps 760 mmHg 70%
    11:00 +21°C° 0.4 mm 5 mps 760 mmHg 70%
    12:00 +22°C° 0.4 mm 5 mps 760 mmHg 69%
    13:00 +23°C° 0.4 mm 5 mps 759 mmHg 67%
    14:00 +23°C° 0.4 mm 5 mps 759 mmHg 65%
    15:00 +23°C° 0.4 mm 5 mps 758 mmHg 63%
    16:00 +22°C° 0 mm 5 mps 758 mmHg 65%
    17:00 +21°C° 0 mm 5 mps 758 mmHg 67%
    18:00 +20°C° 0 mm 5 mps 758 mmHg 70%
    19:00 +17°C° 0 mm 5 mps 758 mmHg 75%
    20:00 +17°C° 0 mm 4 mps 758 mmHg 79%
    21:00 +15°C° 0 mm 4 mps 758 mmHg 84%
    22:00 +15°C° 0 mm 4 mps 758 mmHg 84%
    23:00 +14°C° 0 mm 4 mps 758 mmHg 84%
    Show more